Printer-friendly version

IAU Minor Planet Center

Minor Planet Center

MPEC 2005-C16 : 2005 CK

The following Minor Planet Electronic Circular may be linked-to from your own Web pages, but must not otherwise be redistributed electronically.


Read MPEC 2005-C15 Read MPEC 2005-C17


M.P.E.C. 2005-C16                                Issued 2005 Feb. 3, 13:08 UT

     The Minor Planet Electronic Circulars contain information on unusual
         minor planets and routine data on comets.  They are published
   on behalf of Commission 20 of the International Astronomical Union by the
          Minor Planet Center, Smithsonian Astrophysical Observatory,
                          Cambridge, MA 02138, U.S.A.

                  Supported in part by the Brinson Foundation
             Prepared using the Tamkin Foundation Computer Network

                              MPC@CFA.HARVARD.EDU
          URL http://cfa-www.harvard.edu/iau/mpc.html  ISSN 1523-6714

                                    2005 CK

Observations:
     K05C00K*tC2005 02 02.24101 09 49 40.36 +17 33 38.4          19.0 V EC016691
     K05C00K tC2005 02 02.26926 09 48 58.36 +17 13 33.2          18.4 V EC016691
     K05C00K tC2005 02 02.29550 09 48 19.02 +16 54 49.7          18.2 V EC016691
     K05C00K bC2005 02 02.94803 09 34 01.71 +09 05 47.9          18.6   EC016147
     K05C00K bC2005 02 02.95301 09 33 55.06 +09 02 13.0          17.5   EC016147
     K05C00K bC2005 02 02.95703 09 33 49.66 +08 59 23.9          19.2   EC016147
     K05C00K  C2005 02 03.00220 09 32 50.53 +08 26 53.7                 EC016J95
     K05C00K  C2005 02 03.00703 09 32 43.96 +08 23 27.9                 EC016J95
     K05C00K  C2005 02 03.01307 09 32 35.80 +08 19 12.5          18.9 R EC016J95
     K05C00K  C2005 02 03.20966 09 28 40.14 +06 02 03.0          18.4 R EC016649
     K05C00K  C2005 02 03.21076 09 28 38.71 +06 01 16.6          18.2 R EC016649
     K05C00K  C2005 02 03.21131 09 28 37.96 +06 00 53.8          18.0 R EC016649
     K05C00K  C2005 02 03.21186 09 28 37.22 +06 00 30.4          18.7 R EC016649
     K05C00K  C2005 02 03.21241 09 28 36.46 +06 00 07.8          18.7 R EC016649
     K05C00K  C2005 02 03.26443 09 27 27.40 +05 23 54.5          18.9 R EC016734
     K05C00K  C2005 02 03.26785 09 27 22.89 +05 21 33.1                 EC016734
     K05C00K  C2005 02 03.27126 09 27 18.36 +05 19 11.0          19.1 R EC016734
     K05C00K 5C2005 02 03.37477 09 25 08.15 +04 08 03.5          18.5 R EC016673
     K05C00K 5C2005 02 03.37634 09 25 06.03 +04 06 57.0                 EC016673
     K05C00K 5C2005 02 03.37884 09 25 02.79 +04 05 14.8                 EC016673
     K05C00K 5C2005 02 03.38120 09 24 59.66 +04 03 38.7                 EC016673
     K05C00K 5C2005 02 03.38639 09 24 52.76 +04 00 02.1                 EC016673
     K05C00K 5C2005 02 03.39201 09 24 45.34 +03 56 11.2                 EC016673
     K05C00K 2C2005 02 03.40038 09 24 30.22 +03 50 33.3          17.8 R EC016H06
     K05C00K 2C2005 02 03.40216 09 24 27.95 +03 49 20.6          18.0 R EC016H06
     K05C00K 2C2005 02 03.40429 09 24 25.19 +03 47 51.7          17.9 R EC016H06

Observer details:
147 Osservatorio Astronomico di Suno.  Observers D. Crespi, S. Foglia,
    S. Minuto.  0.40-m f/4 reflector + CCD.
649 Powell Observatory, Louisburg.  Observers R. Fredrick, R. Trentman.
    0.75-m Newtonian reflector + CCD.
673 Table Mountain Observatory, Wrightwood.  Observer J. Young.  0.6-m
    reflector + CCD.
691 Steward Observatory, Kitt Peak.  Observer J. V. Scotti.  Measurer
    A. S. Descour.  0.9-m f/3 reflector + CCD.
734 Farpoint Observatory.  Observer D. Tibbets.  Measurer G. Hug.  0.36-m
    Schmidt-Cassegrain + CCD.
H06 New Mexico Skies Observatory.  Observer R. Hutsebaut.  0.25-m reflector
    + CCD.
J95 Great Shefford.  Observer P. Birtwhistle.  0.30-m f/6.3 Schmidt-Cassegrain
    + CCD.

Orbital elements:
2005 CK
Epoch 2005 Jan. 30.0 TT = JDT 2453400.5                 MPC
M  13.44011              (2000.0)            P               Q
n   0.85156502     Peri.  160.27291     -0.42135090     -0.88140069
a   1.1023618      Node   313.95797     +0.78714766     -0.23849631
e   0.0895470      Incl.   17.25563     +0.45040202     -0.40774052
P   1.16           H   26.0           G   0.15
From 25 observations 2005 Feb. 2-3.

Ephemeris:
2005 CK                  a,e,i = 1.10, 0.09, 17                  q = 1.0036
Date    TT    R. A. (2000) Decl.     Delta      r     Elong.  Phase     V
2005 01 30    11 15.59   +48 47.3    0.029    1.007   137.3    41.6    20.0
2005 01 31    10 46.80   +41 16.5    0.026    1.007   146.1    33.0    19.5
2005 02 01    10 19.76   +31 42.6    0.024    1.008   156.5    22.9    19.0
2005 02 02    09 55.03   +20 27.6    0.023    1.008   167.1    12.6    18.6
2005 02 03    09 32.85   +08 33.2    0.023    1.009   169.7    10.0    18.5
2005 02 04    09 13.23   -02 42.5    0.025    1.009   161.0    18.5    18.9
2005 02 05    08 56.02   -12 24.7    0.027    1.010   151.2    28.0    19.4
2005 02 06    08 41.00   -20 16.9    0.030    1.010   142.9    36.1    19.9
2005 02 07    08 27.90   -26 29.2    0.034    1.011   136.1    42.6    20.3
2005 02 08    08 16.48   -31 20.5    0.038    1.012   130.6    47.7    20.7
2005 02 09    08 06.50   -35 09.4    0.042    1.012   126.3    51.8    21.1
2005 02 10    07 57.78   -38 11.0    0.047    1.013   122.7    55.1    21.4
2005 02 11    07 50.12   -40 37.0    0.051    1.014   119.8    57.7    21.7
2005 02 12    07 43.39   -42 35.7    0.056    1.014   117.4    59.8    21.9
2005 02 13    07 37.45   -44 13.5    0.061    1.015   115.3    61.6    22.2
2005 02 14    07 32.20   -45 34.9    0.066    1.016   113.6    63.0    22.4
2005 02 15    07 27.55   -46 43.4    0.071    1.017   112.1    64.2    22.6
2005 02 16    07 23.41   -47 41.6    0.076    1.017   110.8    65.2    22.7
2005 02 17    07 19.73   -48 31.5    0.081    1.018   109.6    66.1    22.9
2005 02 18    07 16.45   -49 14.5    0.086    1.019   108.6    66.8    23.1
2005 02 19    07 13.51   -49 51.8    0.091    1.020   107.7    67.4    23.2

Timothy B. Spahr             (C) Copyright 2005 MPC           M.P.E.C. 2005-C16

Read MPEC 2005-C15 Read MPEC 2005-C17


Our Web policy. Index to the CBAT/MPC/ICQ pages.


Valid HTML 4.01!